Regional Weather Roundup
Issued by NWS Charleston, WV

Home | Current Version | Previous Version | Graphics & Text | Print | Product List | Glossary On
Versions: 1 2 3 4 5 6 7 8 9 10 11 12 13 14 15 16 17 18 19 20 21 22 23 24 25 26 27 28 29 30 31 32 33 34 35 36 37 38 39 40 41 42 43 44 45 46 47 48 49 50
939
ASUS41 KRLX 100310
RWRRLX
CRWRWRRLX ALL
West Virginia Regional Weather Roundup
National Weather Service Charleston WV
Issued by National Weather Service Pittsburgh PA
1000 PM EST FRI DEC 09 2016

Note: "fair" indicates few or no clouds below 12,000 feet with no
significant weather and/or obstructions to visibility.

WVZ003-100400-
Northern Panhandle of West Virginia

CITY           SKY/WX    TMP DP  RH WIND       PRES   REMARKS
WHEELING       CLOUDY    24  16  71 W13       30.42S WCI  12
$$

WVZ009-100400-
Northwest West Virginia

CITY           SKY/WX    TMP DP  RH WIND       PRES   REMARKS
PARKERSBURG    CLOUDY    25  13  60 W12       30.53R WCI  14
$$

WVZ006-100400-
Western West Virginia

CITY           SKY/WX    TMP DP  RH WIND       PRES   REMARKS
HUNTINGTON     CLOUDY    24  12  60 W5        30.55R WCI  18
$$

WVZ015-100400-
West Central West Virginia

CITY           SKY/WX    TMP DP  RH WIND       PRES   REMARKS
CHARLESTON     FLURRIES  24  13  62 VRB5      30.52R WCI  18
$$

WVZ031-100400-
North Central West Virginia

CITY           SKY/WX    TMP DP  RH WIND       PRES   REMARKS
CLARKSBURG     CLOUDY    24  14  65 SW9       30.45R WCI  14
MORGANTOWN     CLOUDY    26  13  57 VRB6      30.42S WCI  19
$$

WVZ035-042-100400-
South Central West Virginia

CITY           SKY/WX    TMP DP  RH WIND       PRES   REMARKS
BECKLEY        CLOUDY    19   9  65 W9        30.40R WCI   8
BLUEFIELD      CLOUDY    16   9  74 W8        30.38R WCI   5
$$

WVZ045-100400-
Greenbrier Valley of West Virginia

CITY           SKY/WX    TMP DP  RH WIND       PRES   REMARKS
LEWISBURG      FLURRIES  20  13  73 NW5       30.39R WCI  13
$$

WVZ047-100400-
Northern Mountains of West Virginia

CITY           SKY/WX    TMP DP  RH WIND       PRES   REMARKS
ELKINS         CLOUDY    21  11  65 W6        30.39S WCI  13
$$

WVZ052-100400-
Eastern Panhandle of West Virginia

CITY           SKY/WX    TMP DP  RH WIND       PRES   REMARKS
MARTINSBURG    MOCLDY    30  15  53 W9        30.39S WCI  22
PETERSBURG     CLOUDY    29  16  58 NW7       30.44R WCI  21
$$




USA.gov is the U.S. government's official web portal to all federal, state and local government web resources and services.